Lake Wateree Weather Center

Moon Phase Calendar



Lake Wateree Water Level
Online Cameras

 


      

Current Conditions in Shamokin
1/21/2021 3:10:35 AM

44°F
Feels Like 39
Clouds
Humidity
76%
Pressure
30"
Wind
4.8 mph (SW)
Dew Point
37°F
UV Index
0/10 (Low)
Visibility
6 mi

Hourly Forecast

Date & Time Thu, Jan 21
3:00 AM
Thu, Jan 21
4:00 AM
Thu, Jan 21
5:00 AM
Thu, Jan 21
6:00 AM
Thu, Jan 21
7:00 AM
Thu, Jan 21
8:00 AM
Thu, Jan 21
9:00 AM
Thu, Jan 21
10:00 AM
Thu, Jan 21
11:00 AM
Thu, Jan 21
12:00 PM
Thu, Jan 21
1:00 PM
Thu, Jan 21
2:00 PM
Thu, Jan 21
3:00 PM
Thu, Jan 21
4:00 PM
Thu, Jan 21
5:00 PM
Thu, Jan 21
6:00 PM
Thu, Jan 21
7:00 PM
Thu, Jan 21
8:00 PM
Thu, Jan 21
9:00 PM
Thu, Jan 21
10:00 PM
Thu, Jan 21
11:00 PM
Fri, Jan 22
12:00 AM
Fri, Jan 22
1:00 AM
Fri, Jan 22
2:00 AM
Fri, Jan 22
3:00 AM
Fri, Jan 22
4:00 AM
Fri, Jan 22
5:00 AM
Fri, Jan 22
6:00 AM
Fri, Jan 22
7:00 AM
Fri, Jan 22
8:00 AM
Fri, Jan 22
9:00 AM
Fri, Jan 22
10:00 AM
Fri, Jan 22
11:00 AM
Fri, Jan 22
12:00 PM
Fri, Jan 22
1:00 PM
Fri, Jan 22
2:00 PM
Fri, Jan 22
3:00 PM
Fri, Jan 22
4:00 PM
Fri, Jan 22
5:00 PM
Fri, Jan 22
6:00 PM
Fri, Jan 22
7:00 PM
Fri, Jan 22
8:00 PM
Fri, Jan 22
9:00 PM
Fri, Jan 22
10:00 PM
Fri, Jan 22
11:00 PM
Sat, Jan 23
12:00 AM
Sat, Jan 23
1:00 AM
Sat, Jan 23
2:00 AM
Condition
Clouds

Clouds

Clouds

Clouds

Rain

Rain

Rain

Clouds

Clouds

Clouds

Clouds

Clouds

Clouds

Clouds

Clouds

Clouds

Clouds

Clouds

Clouds

Clouds

Clouds

Clouds

Clouds

Clouds

Clouds

Clouds

Clouds

Clouds

Clouds

Clouds

Clouds

Clouds

Clouds

Clouds

Clouds

Clouds

Clouds

Clouds

Clouds

Clouds

Clouds

Clear

Clear

Clear

Clear

Clear

Clear

Clear
Temperature 44°F43°F43°F44°F44°F43°F43°F45°F47°F51°F53°F54°F55°F55°F54°F53°F53°F52°F51°F52°F52°F53°F52°F52°F51°F51°F50°F50°F49°F50°F51°F53°F54°F56°F58°F59°F60°F59°F56°F53°F50°F49°F48°F46°F44°F43°F42°F40°F
Feels Like 39°F37°F36°F38°F38°F37°F37°F38°F40°F44°F46°F47°F48°F48°F47°F47°F48°F48°F47°F48°F49°F50°F50°F50°F49°F49°F49°F48°F47°F48°F49°F50°F51°F52°F53°F54°F55°F54°F53°F49°F46°F45°F42°F40°F37°F35°F34°F32°F
Cloudiness 100%100%100%100%100%100%100%100%100%100%100%100%100%100%100%100%100%100%100%100%100%100%100%100%100%100%100%100%100%100%100%100%100%100%100%100%69%79%79%80%72%4%2%1%1%1%1%0%
Visibility 6 mi6 mi6 mi6 mi6 mi6 mi6 mi6 mi6 mi6 mi6 mi6 mi6 mi6 mi6 mi6 mi6 mi6 mi6 mi6 mi6 mi6 mi6 mi6 mi6 mi6 mi6 mi6 mi6 mi6 mi6 mi6 mi6 mi6 mi6 mi6 mi6 mi6 mi6 mi6 mi6 mi6 mi6 mi6 mi6 mi6 mi6 mi6 mi
Precipitation 0%0%0%0%20%89%80%76%69%68%64%0%0%0%0%0%0%0%0%0%0%0%0%0%0%0%0%0%0%0%0%0%0%0%0%0%0%0%0%0%0%0%0%0%0%0%0%0%
Humidity 76%72%68%62%68%81%86%87%86%81%79%78%79%80%82%85%86%89%92%91%92%92%93%95%96%96%96%96%96%96%91%84%77%70%61%54%49%52%61%65%70%71%69%65%62%63%66%70%
Dew Point 37°F35°F33°F32°F34°F38°F40°F41°F43°F46°F47°F48°F49°F49°F49°F49°F49°F49°F49°F50°F50°F50°F51°F51°F50°F50°F49°F49°F48°F48°F49°F48°F48°F47°F45°F43°F42°F42°F43°F42°F41°F40°F38°F35°F32°F30°F30°F29°F
Pressure 30"30"30"30"30.03"30.03"30.03"30"29.97"29.94"29.91"29.88"29.88"29.85"29.85"29.85"29.85"29.88"29.88"29.88"29.85"29.88"29.88"29.88"29.88"29.85"29.85"29.88"29.88"29.88"29.91"29.91"29.91"29.91"29.91"29.88"29.85"29.88"29.88"29.91"29.97"29.97"30"30.03"30.03"30.06"30.06"30.06"
Wind Speed 4.8 mph4.3 mph4.8 mph5.2 mph5.3 mph6.3 mph6.6 mph7.6 mph9 mph10.2 mph11.7 mph11.4 mph11.6 mph11.1 mph10.8 mph9.3 mph8.3 mph6.7 mph6.8 mph6.2 mph5.5 mph5.1 mph4.3 mph3.4 mph3.3 mph2.8 mph2.6 mph3.5 mph2.8 mph2.5 mph3.2 mph4.8 mph5.6 mph5.6 mph6.8 mph5.8 mph6 mph5.1 mph2.8 mph3 mph3.2 mph3.6 mph4.6 mph5.5 mph7.5 mph8.3 mph7.7 mph7.3 mph
Wind
Direction
230°
SW
231°
SW
238°
WSW
250°
WSW
265°
W
258°
WSW
244°
WSW
246°
WSW
241°
WSW
246°
WSW
246°
WSW
243°
WSW
248°
WSW
246°
WSW
245°
WSW
241°
WSW
240°
WSW
238°
WSW
244°
WSW
245°
WSW
249°
WSW
256°
WSW
265°
W
261°
W
275°
W
280°
W
292°
WNW
284°
WNW
278°
W
254°
WSW
247°
WSW
278°
W
273°
W
280°
W
282°
WNW
284°
WNW
290°
WNW
292°
WNW
295°
WNW
296°
WNW
286°
WNW
313°
NW
335°
NNW
354°
N
28°
NNE
36°
NE
40°
NE
40°
NE

Daily Forecast

Date High Low Precip. Humidity
Today
Jan 21

Rain
55 °F
42 °F
89%
81%
Friday
Jan 22

Clouds
60 °F
46 °F
0%
70%
Saturday
Jan 23

Clear
51 °F
35 °F
0%
45%
Sunday
Jan 24

Clouds
55 °F
34 °F
0%
40%
Monday
Jan 25

Rain
66 °F
50 °F
100%
89%
Tuesday
Jan 26

Rain
68 °F
49 °F
100%
59%
Wednesday
Jan 27

Rain
45 °F
42 °F
100%
94%
Thursday
Jan 28

Rain
50 °F
36 °F
100%
49%
Friday
Jan 29

Clear
51 °F
28 °F
0%
43%
Saturday
Jan 30

Clear
57 °F
34 °F
0%
46%
Sunday
Jan 31

Clouds
64 °F
50 °F
4%
54%
Monday
Feb 1

Rain
58 °F
33 °F
100%
50%
Tuesday
Feb 2

Clear
46 °F
29 °F
0%
47%
Wednesday
Feb 3

Clouds
51 °F
31 °F
0%
43%
Thursday
Feb 4

Clouds
55 °F
33 °F
0%
57%
Friday
Feb 5

Rain
59 °F
54 °F
100%
91%


Temperature 8-14 Day Outlook



Precipitation 8-14 Day Outlook




Quick Links
Lake Wateree News
Lake Wateree Photos
Lake Wateree Videos




About Us
Contact Us
Site Map
Search Site
Advertise With Us
   
Wateree.LakesOnline.com
THE LAKE WATEREE WEBSITE

Copyright 2021, Lakes Online
Privacy    |    Legal